Погода в Сузанове

Россия / Оренбургская область     52°07′37″N   53°48′22″E
темп.,
°C
ветер,
м/с
пор.,
м/с
влажн.,
%
обл.,
%
осадки,
мм/ч
давл.,
гПа
погр.,
м
23 апреля, пт
пт2323:00+4ююв61197100 4.8 1029670
02:00+4вюв41091100 0.1 1028322
05:00+5вюв4988100 0.1 1027278
08:00+6вюв4976100 0.0 1026274
11:00+10ююв5960100 0.0 1026579
14:00+12ююв8956100 0.0 10251164
17:00+9ююв5781100 0.4 1024768
20:00+7всв3890100 2.7 1023478
24 апреля, сб
сб2423:00+7юв4793100 4.8 1021362
02:00+7вюв3694100 1.9 1018365
05:00+7вюв4994100 4.1 1015703
08:00+6вюв4792100 1.1 1014630
11:00+6в3691100 1.6 1013467
14:00+6сз0193100 0.5 1013152
17:00+7зюз3489100 0.6 1013421
20:00+7зюз4791100 0.2 1014375
25 апреля, вс
вс2523:00+5ююз36954 0.2 1014118
02:00+6ю4109099 0.0 1013260
05:00+7ююз41296100 0.7 1012411
08:00+7юз71395100 1.4 1012781
11:00+9зюз8126433 1.9 10141355
14:00+10зюз10145799 0.3 10151795
17:00+11зюз10144011 0.4 10162552
20:00+8зюз611501 0.0 1018473
26 апреля, пн
пн2623:00+5зюз376619 0.0 1020128
02:00+4юз2272100 0.0 102117
05:00+3зюз2275100 0.0 102113
08:00+5ю1268100 0.0 1022103
11:00+8юв3256100 0.0 1021524
14:00+10юв5545100 0.0 10191344
17:00+7юв6776100 0.2 1019780
20:00+6в5987100 0.4 1016396
27 апреля, вт
вт2723:00+6всв5990100 0.4 1012401
02:00+6ссв4696100 2.3 1010238
05:00+6ссв3597100 2.8 1008214
08:00+6ссз3595100 0.0 1008336
11:00+8ссз4587100 0.0 1008404
14:00+10сз5673100 0.0 1009974
17:00+12сз3656100 0.1 10101455
20:00+11сз1261100 0.0 101013